DW9161 Weather Reports


Display with metric or nautical units.
time (UTC)temp
F
wind
direction
speed
MPH
gust
MPH
rain 1hr
in
rain 24hr
in
rain mn
in
humidity
%
barometer
mb
20260509203537 77 359 6.0 11.0 0.00 0.00 0.00 32 1009.8
20260509203034 77 321 4.0 11.0 0.00 0.00 0.00 32 1009.7
20260509202533 78 360 6.0 10.0 0.00 0.00 0.00 30 1009.5
20260509202050 78 330 5.0 16.0 0.00 0.00 0.00 31 1009.5
20260509201548 78 314 6.0 16.0 0.00 0.00 0.00 29 1009.4
20260509201108 77 356 6.0 12.0 0.00 0.00 0.00 30 1009.3
20260509200553 78 329 6.0 12.0 0.00 0.00 0.00 29 1009.3
20260509200033 78 319 4.0 9.0 0.00 0.00 0.00 29 1009.3
20260509195551 77 329 2.0 10.0 0.00 0.00 0.00 29 1009.1
20260509195109 77 307 6.0 10.0 0.00 0.00 0.00 28 1009.2
20260509194546 77 297 4.0 6.0 0.00 0.00 0.00 27 1009.2
20260509194043 77 337 3.0 11.0 0.00 0.00 0.00 27 1009.3
20260509193542 78 30 5.0 11.0 0.00 0.00 0.00 26 1009.2
20260509193039 79 326 3.0 7.0 0.00 0.00 0.00 26 1009.1
20260509192538 79 266 3.0 5.0 0.00 0.00 0.00 29 1009.1
20260509192055 79 291 2.0 7.0 0.00 0.00 0.00 28 1009.0
20260509191532 77 296 2.0 8.0 0.00 0.00 0.00 30 1009.1
20260509191033 77 345 5.0 8.0 0.00 0.00 0.00 28 1009.0
20260509190559 77 349 2.0 7.0 0.00 0.00 0.00 27 1009.0
20260509190057 77 301 2.0 7.0 0.00 0.00 0.00 31 1009.1
20260509185532 76 323 2.0 10.0 0.00 0.00 0.00 31 1009.2
20260509185050 75 311 2.0 7.0 0.00 0.00 0.00 28 1009.0
20260509184548 76 326 2.0 7.0 0.00 0.00 0.00 27 1009.1
20260509184107 76 359 2.0 7.0 0.00 0.00 0.00 31 1009.1
20260509183545 76 328 3.0 7.0 0.00 0.00 0.00 31 1009.1
20260509183043 76 330 4.0 9.0 0.00 0.00 0.00 30 1009.1
20260509182541 76 302 3.0 12.0 0.00 0.00 0.00 29 1009.1
20260509182059 76 1 5.0 12.0 0.00 0.00 0.00 30 1009.1
20260509181535 75 360 4.0 7.0 0.00 0.00 0.00 35 1009.0
20260509181053 75 356 2.0 7.0 0.00 0.00 0.00 30 1008.9
20260509180558 75 349 3.0 9.0 0.00 0.00 0.00 32 1008.9
20260509180037 75 356 3.0 9.0 0.00 0.00 0.00 31 1009.0
20260509175536 75 349 3.0 9.0 0.00 0.00 0.00 32 1008.9
20260509175053 74 83 1.0 6.0 0.00 0.00 0.00 32 1008.8
20260509174038 74 334 3.0 8.0 0.00 0.00 0.00 34 1008.8
20260509173556 74 296 3.0 8.0 0.00 0.00 0.00 33 1008.9
20260509173031 73 300 4.0 8.0 0.00 0.00 0.00 31 1009.0
20260509172549 74 310 4.0 9.0 0.00 0.00 0.00 33 1009.0
20260509171539 73 334 5.0 7.0 0.00 0.00 0.00 33 1009.1
20260509171057 72 295 3.0 6.0 0.00 0.00 0.00 34 1009.1
20260509170605 72 341 3.0 6.0 0.00 0.00 0.00 33 1009.1
20260509170107 71 326 3.0 7.0 0.00 0.00 0.00 33 1009.2
20260509165546 71 313 4.0 7.0 0.00 0.00 0.00 33 1009.2
20260509165043 71 316 4.0 9.0 0.00 0.00 0.00 32 1009.3
20260509164540 72 307 4.0 9.0 0.00 0.00 0.00 34 1009.1
20260509164037 72 343 3.0 5.0 0.00 0.00 0.00 35 1009.0
20260509163535 71 342 3.0 8.0 0.00 0.00 0.00 37 1009.0
20260509163032 71 350 4.0 8.0 0.00 0.00 0.00 35 1009.0
20260509162549 71 314 4.0 8.0 0.00 0.00 0.00 35 1009.0
20260509162045 71 329 3.0 8.0 0.00 0.00 0.00 35 1009.0
20260509161543 70 340 4.0 7.0 0.00 0.00 0.00 36 1009.0
20260509161041 70 331 2.0 8.0 0.00 0.00 0.00 38 1009.0
20260509160609 70 260 6.0 9.0 0.00 0.00 0.00 37 1008.9
20260509160111 70 334 6.0 11.0 0.00 0.00 0.00 36 1009.0
20260509155548 70 327 4.0 11.0 0.00 0.00 0.00 39 1009.1
20260509155044 69 305 3.0 9.0 0.00 0.00 0.00 39 1009.1
20260509154542 69 359 4.0 6.0 0.00 0.00 0.00 42 1009.3
20260509154041 68 302 4.0 11.0 0.00 0.00 0.00 41 1009.3
20260509153537 69 12 7.0 11.0 0.00 0.00 0.00 40 1009.4
20260509153037 69 8 5.0 9.0 0.00 0.00 0.00 40 1009.3
20260509152535 69 4 4.0 14.0 0.00 0.00 0.00 41 1009.1
20260509152033 69 329 7.0 14.0 0.00 0.00 0.00 39 1009.2
20260509151551 69 6 5.0 13.0 0.00 0.00 0.00 39 1009.0
20260509151048 69 6 7.0 13.0 0.00 0.00 0.00 39 1009.1
20260509150637 69 323 4.0 9.0 0.00 0.00 0.00 41 1008.6
20260509150032 68 214 4.0 7.0 0.00 0.00 0.00 40 1008.0
20260509145550 68 235 4.0 8.0 0.00 0.00 0.00 40 1008.1
20260509145048 68 189 3.0 8.0 0.00 0.00 0.00 39 1008.1
20260509144545 67 191 4.0 9.0 0.00 0.00 0.00 42 1008.1
20260509144042 66 198 4.0 9.0 0.00 0.00 0.00 44 1008.1
20260509143601 65 195 2.0 9.0 0.00 0.00 0.00 45 1008.1
20260509143040 64 191 5.0 8.0 0.00 0.00 0.00 46 1008.3
20260509142535 63 226 4.0 7.0 0.00 0.00 0.00 50 1008.3
20260509142034 63 228 2.0 6.0 0.00 0.00 0.00 49 1008.3
20260509141532 62 220 2.0 5.0 0.00 0.00 0.00 51 1008.4
20260509141050 61 243 2.0 4.0 0.00 0.00 0.00 50 1008.3
20260509140600 61 245 2.0 4.0 0.00 0.00 0.00 52 1008.3
20260509140039 60 251 2.0 4.0 0.00 0.00 0.00 54 1008.4
20260509135537 60 257 2.0 3.0 0.00 0.00 0.00 54 1008.4
20260509135037 59 257 2.0 3.0 0.00 0.00 0.00 54 1008.3
20260509134535 59 276 2.0 3.0 0.00 0.00 0.00 55 1008.2
20260509134033 58 277 2.0 3.0 0.00 0.00 0.00 55 1008.2
20260509133531 57 277 1.0 3.0 0.00 0.00 0.00 56 1008.1
20260509133049 56 290 2.0 3.0 0.00 0.00 0.00 56 1008.2
20260509132547 55 305 2.0 3.0 0.00 0.00 0.00 57 1008.3
20260509132107 55 336 0.0 2.0 0.00 0.00 0.00 58 1008.2
20260509131544 55 336 1.0 3.0 0.00 0.00 0.00 60 1008.3
20260509131043 54 336 0.0 3.0 0.00 0.00 0.00 59 1008.3
20260509130553 54 336 1.0 3.0 0.00 0.00 0.00 60 1008.4
20260509130051 53 336 1.0 3.0 0.00 0.00 0.00 61 1008.4
20260509125548 53 336 1.0 2.0 0.00 0.00 0.00 61 1008.3
20260509125046 52 336 1.0 2.0 0.00 0.00 0.00 62 1008.3
20260509124544 51 336 1.0 2.0 0.00 0.00 0.00 64 1008.3
20260509124041 51 336 0.0 1.0 0.00 0.00 0.00 64 1008.2
20260509123538 50 336 0.0 0.0 0.00 0.00 0.00 64 1008.2
20260509123039 50 336 0.0 0.0 0.00 0.00 0.00 64 1008.3
20260509122538 50 336 0.0 0.0 0.00 0.00 0.00 67 1008.1
20260509122036 49 336 0.0 1.0 0.00 0.00 0.00 65 1008.1
20260509121553 49 336 0.0 1.0 0.00 0.00 0.00 65 1008.2
20260509121112 49 336 0.0 1.0 0.00 0.00 0.00 65 1008.1
20260509120556 49 336 0.0 0.0 0.00 0.00 0.00 66 1008.0
20260509120035 50 336 0.0 0.0 0.00 0.00 0.00 65 1008.0
20260509115533 50 336 0.0 0.0 0.00 0.00 0.00 63 1007.9
20260509115031 49 336 0.0 0.0 0.00 0.00 0.00 64 1007.8
20260509114611 49 336 0.0 0.0 0.00 0.00 0.00 63 1007.8
20260509114048 50 336 0.0 0.0 0.00 0.00 0.00 63 1007.8
20260509113546 49 336 0.0 0.0 0.00 0.00 0.00 63 1007.8
20260509113045 49 336 0.0 0.0 0.00 0.00 0.00 64 1007.8
20260509112542 49 333 0.0 0.0 0.00 0.00 0.00 64 1007.7
20260509112100 49 333 0.0 0.0 0.00 0.00 0.00 64 1007.7
20260509111538 49 333 0.0 1.0 0.00 0.00 0.00 64 1007.6
20260509111035 50 333 0.0 1.0 0.00 0.00 0.00 62 1007.5
20260509110624 50 333 0.0 0.0 0.00 0.00 0.00 62 1007.6
20260509110042 50 333 0.0 0.0 0.00 0.00 0.00 62 1007.6
20260509105541 50 333 0.0 1.0 0.00 0.00 0.00 61 1007.6
20260509105037 50 333 0.0 1.0 0.00 0.00 0.00 61 1007.6
20260509104535 50 333 0.0 1.0 0.00 0.00 0.00 61 1007.6
20260509104052 51 333 0.0 1.0 0.00 0.00 0.00 60 1007.6
20260509103550 51 333 0.0 2.0 0.00 0.00 0.00 59 1007.6
20260509103046 51 333 1.0 2.0 0.00 0.00 0.00 60 1007.7
20260509102547 51 333 0.0 0.0 0.00 0.00 0.00 59 1007.6
20260509102046 51 333 0.0 1.0 0.00 0.00 0.00 59 1007.5
20260509101544 51 333 0.0 1.0 0.00 0.00 0.00 59 1007.6
20260509101043 51 333 0.0 1.0 0.00 0.00 0.00 59 1007.5
20260509100551 51 333 0.0 1.0 0.00 0.00 0.00 59 1007.6
20260509100031 51 333 0.0 1.0 0.00 0.00 0.00 59 1007.6
20260509095550 52 333 0.0 1.0 0.00 0.00 0.00 59 1007.6
20260509095046 51 333 0.0 1.0 0.00 0.00 0.00 60 1007.6
20260509094543 51 333 0.0 0.0 0.00 0.00 0.00 59 1007.6
20260509094042 52 333 0.0 0.0 0.00 0.00 0.00 59 1007.6
20260509093540 52 333 0.0 0.0 0.00 0.00 0.00 58 1007.6
20260509093036 52 333 0.0 0.0 0.00 0.00 0.00 58 1007.6
20260509092553 52 333 0.0 0.0 0.00 0.00 0.00 58 1007.5
20260509092050 52 333 0.0 0.0 0.00 0.00 0.00 57 1007.7
20260509091549 53 333 0.0 1.0 0.00 0.00 0.00 58 1007.6
20260509091108 53 333 0.0 1.0 0.00 0.00 0.00 57 1007.6
20260509090555 53 333 1.0 1.0 0.00 0.00 0.00 57 1007.6
20260509090038 53 333 0.0 0.0 0.00 0.00 0.00 56 1007.6
20260509085536 54 333 0.0 0.0 0.00 0.00 0.00 54 1007.6
20260509085053 54 333 0.0 0.0 0.00 0.00 0.00 54 1007.5
20260509084548 54 333 0.0 0.0 0.00 0.00 0.00 53 1007.4
20260509084045 54 333 0.0 0.0 0.00 0.00 0.00 54 1007.5
20260509083602 54 333 0.0 1.0 0.00 0.00 0.00 54 1007.4
20260509083038 54 333 0.0 1.0 0.00 0.00 0.00 54 1007.4
20260509082535 54 333 0.0 1.0 0.00 0.00 0.00 54 1007.4
20260509082033 54 333 0.0 0.0 0.00 0.00 0.00 54 1007.4
20260509081531 55 333 0.0 0.0 0.00 0.00 0.00 53 1007.5
20260509081050 55 333 0.0 0.0 0.00 0.00 0.00 52 1007.4
20260509080558 55 333 0.0 0.0 0.00 0.00 0.00 51 1007.4
20260509080036 56 333 0.0 1.0 0.00 0.00 0.00 50 1007.4
20260509075554 56 333 1.0 1.0 0.00 0.00 0.00 50 1007.3
20260509075049 56 333 0.0 1.0 0.00 0.00 0.00 50 1007.4
20260509074547 57 333 0.0 0.0 0.00 0.00 0.00 49 1007.4
20260509074105 57 333 0.0 0.0 0.00 0.00 0.00 48 1007.4
20260509073603 58 333 0.0 1.0 0.00 0.00 0.00 47 1007.4
20260509073040 58 333 0.0 1.0 0.00 0.00 0.00 45 1007.3
20260509072536 59 333 0.0 1.0 0.00 0.00 0.00 45 1007.4
20260509072033 59 333 0.0 3.0 0.00 0.00 0.00 45 1007.4
20260509071535 60 333 1.0 3.0 0.00 0.00 0.00 43 1007.4
20260509071033 60 333 1.0 2.0 0.00 0.00 0.00 42 1007.4
20260509070601 60 333 1.0 2.0 0.00 0.00 0.00 42 1007.4
20260509070039 61 333 1.0 3.0 0.00 0.00 0.00 41 1007.5
20260509065538 61 333 1.0 5.0 0.00 0.00 0.00 41 1007.5
20260509065036 61 333 1.0 5.0 0.00 0.00 0.00 41 1007.4
20260509064554 62 332 3.0 7.0 0.00 0.00 0.00 41 1007.6
20260509064111 62 330 2.0 7.0 0.00 0.00 0.00 40 1007.5
20260509063548 62 343 2.0 9.0 0.00 0.00 0.00 40 1007.5
20260509063047 63 346 4.0 9.0 0.00 0.00 0.00 40 1007.4
20260509062543 63 359 3.0 6.0 0.00 0.00 0.00 40 1007.4
20260509062040 63 335 2.0 6.0 0.00 0.00 0.00 39 1007.4
20260509061537 64 317 3.0 7.0 0.00 0.00 0.00 39 1007.5
20260509061034 64 356 3.0 7.0 0.00 0.00 0.00 39 1007.5
20260509060602 64 352 4.0 8.0 0.00 0.00 0.00 38 1007.4
20260509060042 64 338 4.0 8.0 0.00 0.00 0.00 38 1007.5
20260509055541 64 330 4.0 7.0 0.00 0.00 0.00 39 1007.4
20260509055039 64 351 3.0 8.0 0.00 0.00 0.00 39 1007.4
20260509054536 64 332 3.0 8.0 0.00 0.00 0.00 39 1007.4
20260509054038 64 321 4.0 6.0 0.00 0.00 0.00 39 1007.3
20260509053536 64 340 3.0 8.0 0.00 0.00 0.00 40 1007.3
20260509053034 63 338 3.0 6.0 0.00 0.00 0.00 40 1007.2
20260509052531 63 342 3.0 6.0 0.00 0.00 0.00 42 1007.2
20260509052047 62 333 1.0 3.0 0.00 0.00 0.00 43 1007.2
20260509051545 62 333 1.0 3.0 0.00 0.00 0.00 43 1007.1
20260509051043 63 333 1.0 3.0 0.00 0.00 0.00 46 1007.0
20260509050611 63 333 1.0 4.0 0.00 0.00 0.00 42 1007.0
20260509050109 63 332 1.0 6.0 0.00 0.00 0.00 41 1007.1
20260509045543 61 348 3.0 6.0 0.00 0.00 0.00 43 1007.1
20260509045038 60 352 2.0 5.0 0.00 0.00 0.00 48 1007.0
20260509044534 60 185 1.0 2.0 0.00 0.00 0.00 46 1007.0
20260509044049 61 185 0.0 2.0 0.00 0.00 0.00 46 1006.9
20260509043546 61 185 1.0 1.0 0.00 0.00 0.00 45 1006.9
20260509043043 61 185 0.0 1.0 0.00 0.00 0.00 45 1006.9
20260509042550 61 185 0.0 0.0 0.00 0.00 0.00 45 1006.9
20260509042046 62 185 0.0 0.0 0.00 0.00 0.00 45 1006.9
20260509041541 62 185 0.0 0.0 0.00 0.00 0.00 45 1006.9
20260509041037 62 185 0.0 0.0 0.00 0.00 0.00 44 1007.0
20260509040606 63 185 0.0 0.0 0.00 0.00 0.00 44 1007.0
20260509040043 63 185 0.0 0.0 0.00 0.00 0.00 43 1006.9
20260509035540 63 185 0.0 1.0 0.00 0.00 0.00 42 1006.9
20260509035038 63 185 1.0 1.0 0.00 0.00 0.00 42 1006.8
20260509034535 64 185 0.0 0.0 0.00 0.00 0.00 44 1006.8
20260509033538 64 185 0.0 1.0 0.00 0.00 0.00 44 1006.8
20260509033033 64 185 1.0 2.0 0.00 0.00 0.00 45 1006.8
20260509032548 64 185 0.0 2.0 0.00 0.00 0.00 45 1006.8
20260509032045 65 185 1.0 1.0 0.00 0.00 0.00 43 1006.7
20260509031542 65 185 0.0 1.0 0.00 0.00 0.00 43 1006.7
20260509031040 65 185 0.0 1.0 0.00 0.00 0.00 44 1006.7
20260509030609 65 185 0.0 1.0 0.00 0.00 0.00 43 1006.6
20260509030049 65 185 0.0 0.0 0.00 0.00 0.00 42 1006.5
20260509025606 65 185 0.0 0.0 0.00 0.00 0.00 42 1006.5
20260509025041 66 185 0.0 1.0 0.00 0.00 0.00 42 1006.4
20260509024537 66 185 0.0 1.0 0.00 0.00 0.00 42 1006.3
20260509024037 66 185 0.0 2.0 0.00 0.00 0.00 41 1006.4
20260509023535 67 185 1.0 2.0 0.00 0.00 0.00 40 1006.3
20260509023035 67 185 1.0 2.0 0.00 0.00 0.00 40 1006.2
20260509022533 67 185 1.0 2.0 0.00 0.00 0.00 38 1006.2
20260509022031 68 185 1.0 1.0 0.00 0.00 0.00 37 1006.1
20260509021611 68 185 1.0 1.0 0.00 0.00 0.00 36 1005.9
20260509021046 68 185 0.0 1.0 0.00 0.00 0.00 35 1005.9
20260509020552 69 185 1.0 1.0 0.00 0.00 0.00 34 1005.9
20260509020033 69 185 0.0 1.0 0.00 0.00 0.00 34 1005.8
20260509015531 69 185 0.0 1.0 0.00 0.00 0.00 34 1005.8
20260509015050 69 185 0.0 0.0 0.00 0.00 0.00 34 1005.7
20260509014548 70 185 0.0 2.0 0.00 0.00 0.00 35 1005.7
20260509014047 70 185 1.0 2.0 0.00 0.00 0.00 35 1005.6
20260509013545 70 185 0.0 2.0 0.00 0.00 0.00 35 1005.6
20260509013043 70 185 1.0 2.0 0.00 0.00 0.00 35 1005.6
20260509012540 70 185 1.0 2.0 0.00 0.00 0.00 36 1005.4
20260509012039 71 189 0.0 1.0 0.00 0.00 0.00 36 1005.5
20260509011537 71 189 1.0 1.0 0.00 0.00 0.00 36 1005.4
20260509011037 72 189 0.0 2.0 0.00 0.00 0.00 36 1005.4
20260509010605 72 189 0.0 2.0 0.00 0.00 0.00 36 1005.3
20260509010045 73 189 1.0 3.0 0.00 0.00 0.00 35 1005.3
20260509005545 73 189 1.0 4.0 0.00 0.00 0.00 35 1005.3
20260509005043 73 188 2.0 6.0 0.00 0.00 0.00 35 1005.2
20260509004541 73 188 4.0 6.0 0.00 0.00 0.00 34 1005.2
20260509004038 73 183 3.0 4.0 0.00 0.00 0.00 34 1005.2
20260509003556 73 180 2.0 4.0 0.00 0.00 0.00 35 1005.2
20260509003032 73 180 2.0 4.0 0.00 0.00 0.00 34 1005.2
20260509002531 73 173 2.0 7.0 0.00 0.00 0.00 34 1005.2
20260509002049 73 167 3.0 8.0 0.00 0.00 0.00 34 1005.2
20260509001546 73 191 4.0 8.0 0.00 0.00 0.00 35 1005.2
20260509001044 73 186 2.0 6.0 0.00 0.00 0.00 35 1005.1
20260509000550 73 197 4.0 6.0 0.00 0.00 0.00 35 1005.2
20260508235610 73 200 3.0 7.0 0.00 0.00 0.00 35 1005.2
20260508235046 74 191 4.0 9.0 0.00 0.00 0.00 34 1005.2
20260508234545 73 341 4.0 10.0 0.00 0.00 0.00 33 1005.3
20260508234047 74 146 6.0 10.0 0.00 0.00 0.00 35 1005.3
20260508233545 74 132 4.0 8.0 0.00 0.00 0.00 33 1005.3
20260508233042 74 229 4.0 8.0 0.00 0.00 0.00 33 1005.5
20260508232541 74 225 4.0 9.0 0.00 0.00 0.00 32 1005.5
20260508232037 74 139 4.0 9.0 0.00 0.00 0.00 32 1005.5
20260508231535 75 186 3.0 8.0 0.00 0.00 0.00 32 1005.4
20260508231032 75 224 4.0 8.0 0.00 0.00 0.00 31 1005.4
20260508230601 75 167 4.0 8.0 0.00 0.00 0.00 31 1005.5
20260508230040 75 231 5.0 8.0 0.00 0.00 0.00 32 1005.4
20260508225538 75 245 2.0 7.0 0.00 0.00 0.00 31 1005.5
20260508225036 76 250 4.0 7.0 0.00 0.00 0.00 31 1005.6
20260508224535 76 234 2.0 8.0 0.00 0.00 0.00 32 1005.6
20260508224033 76 218 4.0 8.0 0.00 0.00 0.00 32 1005.7
20260508223550 76 259 2.0 10.0 0.00 0.00 0.00 30 1005.7
20260508223032 77 233 6.0 11.0 0.00 0.00 0.00 30 1005.7
20260508222608 77 212 4.0 12.0 0.00 0.00 0.00 29 1005.7
20260508222048 78 206 5.0 12.0 0.00 0.00 0.00 30 1005.7
20260508221544 78 212 6.0 9.0 0.00 0.00 0.00 30 1005.7
20260508221039 77 223 3.0 12.0 0.00 0.00 0.00 29 1005.7
20260508220606 77 197 6.0 15.0 0.00 0.00 0.00 28 1005.8
20260508220042 77 214 4.0 15.0 0.00 0.00 0.00 28 1005.7
20260508215539 77 269 4.0 7.0 0.00 0.00 0.00 29 1005.8
20260508215035 77 288 3.0 7.0 0.00 0.00 0.00 29 1005.8
20260508214549 77 248 5.0 9.0 0.00 0.00 0.00 29 1005.9
20260508214043 77 266 4.0 12.0 0.00 0.00 0.00 30 1005.9
20260508213539 77 225 5.0 12.0 0.00 0.00 0.00 29 1006.0
20260508213034 78 255 4.0 10.0 0.00 0.00 0.00 30 1006.0
20260508212550 77 224 3.0 10.0 0.00 0.00 0.00 30 1006.0
20260508212045 76 193 3.0 6.0 0.00 0.00 0.00 31 1006.2
20260508211603 76 274 2.0 7.0 0.00 0.00 0.00 30 1006.3
20260508211036 77 270 4.0 9.0 0.00 0.00 0.00 28 1006.4
20260508210627 77 298 3.0 9.0 0.00 0.00 0.00 28 1006.4
20260508210105 77 226 3.0 7.0 0.00 0.00 0.00 27 1006.5
20260508205539 77 240 2.0 8.0 0.00 0.00 0.00 27 1006.5
20260508205034 77 294 2.0 6.0 0.00 0.00 0.00 29 1006.5
20260508204551 76 292 3.0 8.0 0.00 0.00 0.00 28 1006.7
20260508204044 76 227 2.0 8.0 0.00 0.00 0.00 28 1006.8